CAPE
0 24 9 52 174 206 123 234 223 203 83 56 386 116 50 10 173 595 524 450 538 1738 1994 2131 1986 2014 2453 3024 3200 3292 3030 3269
12 7 49 102 488 427 216 484 458 366 486 373 503 88 0 136 47 429 756 548 550 589 1265 2244 2109 2272 2369 2999 2996 3239 2998 3212
35 6 41 121 398 190 198 454 325 370 404 227 69 12 0 37 22 61 849 857 744 890 933 1201 2151 2402 2530 2700 2790 3200 3056 3004
28 20 5 55 161 490 824 357 159 392 193 232 60 0 2 9 7 66 262 922 1009 1049 1229 1354 2023 1913 2457 2327 2331 2922 3069 3438
0 1 0 0 6 32 157 72 290 269 401 19 8 114 128 4 1 470 550 543 889 1088 1380 1623 1785 2083 2230 2389 2538 2662 3039 3080
0 0 12 3 54 43 1 158 287 121 176 92 22 82 166 38 162 156 843 1059 559 849 1325 1804 2299 2451 2818 2586 2491 2856 2881 2922
0 0 0 54 43 0 0 0 48 8 1 211 9 51 25 2 103 63 242 334 1021 781 1809 2583 3101 3446 3391 2882 2983 2759 3302 2915
0 0 0 2 1 0 0 0 0 0 0 98 202 99 5 0 84 13 380 500 581 1290 1954 2882 2777 4119 3446 3498 3079 2994 3522 3160
0 0 0 0 0 0 0 0 0 0 0 1 190 221 30 32 428 696 469 495 850 1106 2238 2674 2910 3770 3749 3494 4050 4102 4621 4268
2 25 32 1 2 16 0 170 203 200 221 113 136 74 947 705 772 1092 1046 998 1244 886 2295 2714 2363 2752 2999 3179 4375 4340 4443 4063
45 75 111 129 120 158 144 308 298 482 621 604 542 378 1375 1024 1020 775 605 637 1010 539 882 3350 3466 3810 3645 3675 4163 4242 4076 3769
161 174 176 65 43 134 66 331 206 428 811 1024 1093 635 1600 1316 1412 1375 733 1310 1731 1553 1205 2319 3005 3703 3693 3960 4037 3313 3933 3816
132 245 134 26 14 74 53 257 152 275 547 895 1242 1444 1461 1366 1661 1861 2107 1403 2047 2237 2364 2916 3323 3528 3714 4165 3993 3988 4200 4145
60 141 86 0 55 241 265 61 32 30 59 186 397 658 810 991 1392 1805 2413 2407 1774 2732 3082 4361 3984 4177 4064 4086 4357 4181 4245 4149
292 48 0 0 0 0 0 0 0 0 0 0 1 49 251 391 764 1268 1731 2673 2652 2628 2981 4143 4089 4368 4335 4525 4428 4262 4250 4072
71 0 0 0 0 0 0 0 0 0 0 0 0 0 0 21 217 267 1123 2154 2191 3119 3041 3523 4160 4573 4361 4441 4523 4415 4355 4067
5 0 0 0 0 0 0 0 0 0 0 0 0 0 0 0 40 34 466 994 1993 2788 3586 3700 4343 4366 4056 4150 4451 4331 4332 3953
0 0 0 0 0 0 0 0 0 0 0 0 0 0 0 0 3 11 152 495 1214 2105 3043 3557 3654 4170 4099 3867 4191 4049 4012 3718
0 0 0 0 0 0 0 0 0 0 0 0 0 0 0 0 0 0 163 171 347 892 2004 2896 3047 3642 4024 3880 4040 3945 3767 3271
CIN
-6 -130 -149 -42 -7 -2 -7 -10 -16 -249 -161 -408 -52 -155 -48 -8 -4 -4 -21 -16 -10 -19 -24 -45 -55 -29 -15 -20 -27 -0 -0 -1
-2 -27 -100 -11 -104 -42 -104 -6 -0 -1 -14 -84 -143 -249 -0 -80 -1 -3 -10 -22 -20 -16 -5 -34 -28 -20 -6 -13 -19 -2 -0 -0
-1 -1 -40 -3 -134 -400 -393 -82 -38 -69 -70 -151 -210 -82 -18 -133 -6 -10 -8 -9 -16 -22 -19 -9 -7 -5 -6 -6 -2 -0 -1 -2
-3 -2 -2 -8 -0 -5 -8 -18 -68 -67 -33 -135 -151 -0 -240 -101 -19 -16 -26 -7 -25 -27 -31 -18 -5 -8 -12 -16 -1 -1 -2 -7
-0 -0 -0 -0 -56 -17 -2 -2 -0 -0 -33 -110 -47 -78 -52 -1 -0 -5 -21 -10 -3 -29 -24 -9 -2 -2 -1 -5 -0 -1 -5 -5
-0 -0 -5 -4 -33 -35 -7 -0 -12 -134 -153 -355 -316 -153 -107 -12 -3 -10 -15 -20 -19 -2 -16 -29 -15 -19 -9 -14 -2 -4 -3 -2
-0 -0 -0 -4 -17 -0 -0 -0 -21 -141 -124 -206 -67 -96 -131 -58 -6 -2 -5 -5 -9 -26 -10 -46 -36 -32 -37 -11 -10 -3 -8 -5
-0 -0 -0 -12 -6 -0 -0 -0 -0 -0 -0 -17 -119 -132 -261 -0 -59 -1 -8 -11 -15 -22 -22 -36 -52 -31 -43 -19 -16 -12 -18 -7
-0 -0 -0 -0 -0 -0 -0 -0 -0 -0 -0 -0 -35 -79 -136 -48 -5 -14 -15 -10 -18 -16 -21 -33 -42 -47 -29 -25 -12 -16 -15 -16
-0 -0 -0 -0 -3 -2 -0 -43 -27 -24 -16 -13 -14 -12 -12 -12 -20 -25 -16 -19 -22 -20 -11 -45 -52 -70 -50 -21 -12 -19 -17 -14
-2 -1 -3 -38 -18 -21 -4 -91 -90 -60 -61 -34 -26 -17 -26 -26 -24 -28 -21 -17 -18 -23 -6 -36 -29 -28 -40 -9 -6 -18 -11 -17
-2 -2 -2 -76 -42 -49 -23 -97 -131 -103 -84 -66 -35 -7 -16 -5 -22 -38 -31 -31 -24 -25 -3 -27 -39 -49 -34 -7 -11 -61 -14 -7
-11 -19 -73 -61 -58 -93 -13 -131 -180 -142 -151 -131 -100 -75 -63 -67 -66 -70 -48 -35 -40 -38 -13 -10 -66 -56 -42 -1 -8 -5 -1 -1
-6 -2 -41 -0 -81 -53 -105 -189 -253 -234 -259 -198 -178 -159 -154 -140 -134 -134 -97 -57 -31 -6 -4 -24 -43 -35 -22 -4 -4 -8 -1 -1
-54 -140 -0 -0 -0 -0 -0 -0 -0 -0 -0 -0 -29 -253 -199 -196 -188 -171 -145 -101 -67 -25 -7 -8 -19 -3 -3 -1 -2 -2 -0 -0
-60 -0 -0 -0 -0 -0 -0 -0 -0 -0 -0 -0 -0 -0 -0 -247 -232 -280 -182 -122 -139 -69 -28 -1 -4 -2 -3 -2 -0 -0 -0 -0
-89 -0 -0 -0 -0 -0 -0 -0 -0 -0 -0 -0 -0 -0 -0 -0 -297 -379 -242 -205 -144 -92 -20 -17 -3 -3 -1 -6 -1 -0 -0 -0
-0 -0 -0 -0 -0 -0 -0 -0 -0 -0 -0 -0 -0 -0 -0 -0 -95 -265 -287 -229 -185 -114 -58 -30 -24 -2 -3 -1 -8 -2 -0 -0
-0 -0 -0 -0 -0 -0 -0 -0 -0 -0 -0 -0 -0 -0 -0 -0 -3 -0 -226 -274 -230 -194 -87 -32 -42 -35 -17 -3 -7 -7 -1 -2
Wind_Speed
21 16 17 19 20 10 22 7 9 10 20 28 7 21 9 4 10 14 9 3 5 23 21 21 20 18 19 18 17 16 16 13
22 19 17 21 7 6 10 14 13 13 7 2 9 17 6 33 7 10 12 7 5 6 18 20 19 17 17 17 17 17 16 15
17 14 18 13 9 5 1 11 2 7 3 9 5 3 14 20 4 4 14 10 5 8 8 14 16 17 14 14 16 16 15 15
16 16 13 18 18 22 15 8 7 10 6 24 13 9 16 28 12 10 8 10 8 7 9 11 15 15 16 15 18 16 15 12
15 15 16 13 16 19 17 17 16 8 7 7 12 14 15 8 7 7 5 3 8 10 9 11 12 14 17 18 15 16 14 15
14 16 15 19 17 17 19 14 13 7 4 16 18 12 17 12 10 7 7 6 3 8 12 12 10 14 11 15 16 13 15 16
21 22 19 14 16 16 16 19 18 22 32 30 15 15 17 26 11 7 8 4 7 3 6 12 10 11 10 14 12 14 11 14
20 18 19 15 11 8 15 13 14 16 16 2 20 13 8 13 20 6 11 11 2 4 3 10 11 10 11 10 13 13 11 12
15 16 15 16 13 14 15 11 10 11 12 9 9 15 18 22 4 13 11 7 7 7 8 5 11 10 10 9 7 8 7 8
15 15 15 13 21 20 18 15 18 17 19 15 14 15 19 18 13 10 10 9 8 6 5 9 10 12 10 10 6 8 9 9
12 12 11 19 22 17 11 19 16 15 16 16 14 10 17 17 14 12 10 11 12 14 7 9 8 10 11 8 8 8 10 11
5 7 9 8 12 16 6 11 15 13 14 14 13 8 13 16 17 16 13 12 9 13 6 12 9 11 10 10 10 11 12 11
11 6 8 5 14 16 5 7 12 15 15 15 12 10 16 17 16 17 17 12 9 8 11 4 12 12 13 10 10 9 9 10
10 12 8 15 3 7 8 11 12 13 14 14 13 14 15 17 16 18 18 19 15 10 4 7 8 9 12 12 10 9 11 11
9 9 12 17 16 15 15 11 12 12 13 13 13 14 15 15 15 16 16 16 16 14 2 8 8 7 10 9 11 11 12 12
11 13 14 14 14 13 11 11 12 13 12 14 14 14 14 14 12 13 14 13 15 16 13 3 6 8 9 10 11 13 13 13
18 16 5 14 11 9 11 12 11 12 13 14 14 14 13 11 11 11 12 12 13 13 14 11 6 8 10 10 12 13 13 12
10 11 9 10 11 11 10 12 13 13 13 13 13 13 14 9 8 7 9 10 9 13 12 14 12 6 9 10 14 14 13 12
9 11 11 13 13 16 15 14 14 15 14 15 15 14 14 12 10 6 7 9 12 7 11 12 11 12 7 10 9 14 14 13
Wind_Direction
231 205 244 243 238 274 277 226 254 162 239 187 305 6 341 127 161 159 140 232 208 176 176 175 177 193 178 166 178 188 195 194
203 205 215 243 32 34 326 291 249 257 88 36 11 70 328 282 14 148 140 165 190 208 172 167 177 184 178 170 182 189 201 190
219 189 214 216 124 114 1 268 281 352 48 355 79 113 277 285 125 45 145 145 172 177 179 173 165 165 180 181 196 191 199 190
214 199 216 250 237 192 211 170 184 194 206 204 146 156 244 262 43 50 9 130 151 164 182 177 168 183 176 191 212 190 198 203
250 228 192 220 247 265 231 251 240 225 137 7 182 254 228 102 106 120 68 99 161 159 180 184 187 191 186 191 207 191 194 191
248 242 202 208 221 238 255 260 284 342 295 25 327 325 335 345 107 93 141 131 303 186 176 178 192 182 188 184 195 202 189 189
233 266 274 218 215 220 250 277 284 188 247 186 175 270 22 321 304 116 135 101 139 270 164 168 179 173 180 180 185 191 195 191
249 251 261 264 265 262 216 239 265 280 298 261 146 128 109 272 288 24 58 41 77 181 200 181 177 166 178 179 182 193 187 192
240 235 258 258 250 252 263 256 262 253 265 293 163 155 152 236 10 38 25 40 357 334 177 229 175 167 169 183 171 174 167 160
240 220 231 249 234 223 233 52 26 12 18 29 21 15 56 45 36 24 8 342 319 286 186 174 184 175 179 179 184 171 156 163
226 233 230 22 24 10 133 57 30 24 21 7 2 350 43 34 25 3 339 343 348 316 192 151 162 153 159 176 186 167 168 174
250 248 281 111 354 340 311 79 22 24 23 12 0 341 29 18 9 356 358 354 347 334 340 143 154 142 163 181 177 179 180 181
199 276 67 14 339 315 295 56 28 30 25 22 22 356 1 11 14 356 342 352 347 351 327 178 154 157 170 184 184 181 181 182
279 237 105 327 2 48 95 65 41 30 30 19 12 4 1 355 9 359 352 351 348 338 24 95 137 155 171 182 171 169 180 185
32 95 81 59 66 48 62 59 33 24 17 11 10 7 0 348 8 356 353 345 339 336 108 136 156 193 178 172 164 177 187 184
119 111 95 75 56 39 50 40 21 14 7 1 0 354 357 346 2 351 351 350 343 335 345 184 159 161 180 175 182 184 191 187
92 34 62 64 39 22 33 16 4 360 358 347 344 340 338 340 345 356 346 350 344 336 331 335 176 181 187 193 185 190 195 193
64 36 12 12 343 20 7 352 345 346 339 329 330 322 316 322 330 358 336 338 349 341 336 337 338 228 202 211 186 194 200 200
20 22 349 337 346 356 346 335 333 331 319 322 315 314 316 314 313 331 320 337 324 342 332 324 338 317 240 219 213 207 203 206